Weather History for Salem, IL

Change the Weather History Date:

Wednesday, April 24, 2013

  Actual Average Record
Temperature  
Mean Temperature 46 °F -  
Max Temperature 50 °F 68 °F 87 °F (1960)
Min Temperature 41 °F 46 °F 28 °F (1963)
Degree Days  
Heating Degree Days 20    
Moisture  
Dew Point 39 °F    
Average Humidity 82    
Maximum Humidity 100    
Minimum Humidity 56    
Precipitation  
Precipitation 0.39 in - - ()
Sea Level Pressure  
Sea Level Pressure 30.12 in    
Wind  
Wind Speed 11 mph (NW)    
Max Wind Speed 17 mph    
Max Gust Speed 24 mph    
Visibility 9 miles    
Events Rain , Thunderstorm    
Averages and records for this station are not official NWS values.
T = Trace of Precipitation, MM = Missing Value Source: NWS Daily Summary

Daily Weather History Graph

Daily Weather History Graph

Search for Another Location

Airport:

Trip Planner

Search our weather history database for the weather conditions in past years. The results will help you decide how hot, cold, wet, or windy it might be!

Date:

Astronomy

Apr. 24, 2013 Rise Set
Actual Time 6:06 AM CDT 7:41 PM CDT
Civil Twilight 5:38 AM CDT 8:09 PM CDT
Nautical Twilight 5:05 AM CDT 8:43 PM CDT
Astronomical Twilight 4:29 AM CDT 9:19 PM CDT
Moon 6:45 PM CDT (4/24) 5:09 AM CDT (4/24)
Length of Visible Light 14h 30m
Length of Day
13h 34m
Waxing Gibbous, 98% of the Moon is Illuminated
Apr 24
Waxing Gibbous
Apr 25
Full
May 2
Last Quarter
May 9
New
May 17
First Quarter

Hourly Weather History & Observations

Time (CDT) Temp. Windchill Dew Point Humidity Pressure Visibility Wind Dir Wind Speed Gust Speed Precip Events Conditions
12:15 AM 43.9 °F 37.9 °F 43.5 °F 99% 29.97 in 7.0 mi NW 11.5 mph 20.7 mph 0.01 in Rain Light Rain
12:35 AM 43.7 °F 37.3 °F 43.7 °F 100% 29.98 in 10.0 mi WNW 12.7 mph 18.4 mph 0.04 in Rain Light Rain
12:55 AM 43.5 °F 36.7 °F 42.8 °F 97% 29.97 in 7.0 mi NNW 13.8 mph 19.6 mph 0.05 in Rain , Thunderstorm Light Thunderstorms and Rain
1:15 AM 43.0 °F 36.0 °F 42.1 °F 97% 29.96 in 10.0 mi NW 13.8 mph 17.3 mph N/A Rain Rain
1:35 AM 43.0 °F 35.7 °F 41.7 °F 95% 29.96 in 10.0 mi NNW 15.0 mph 18.4 mph N/A Rain Light Rain
1:55 AM 42.8 °F 36.2 °F 41.4 °F 95% 29.97 in 7.0 mi NNW 12.7 mph 19.6 mph 0.01 in Rain , Thunderstorm Heavy Thunderstorms and Rain
2:15 AM 42.3 °F 37.3 °F 41.9 °F 99% 29.96 in 3.0 mi NNW 8.1 mph - 0.07 in Rain Heavy Rain
2:35 AM 42.1 °F 36.1 °F 41.9 °F 99% 29.96 in 4.0 mi NW 10.4 mph - 0.12 in Rain Heavy Rain
2:55 AM 42.1 °F 35.7 °F 41.5 °F 98% 29.96 in 7.0 mi NW 11.5 mph - 0.14 in Rain Rain
3:15 AM 42.1 °F 36.6 °F 41.5 °F 98% 29.96 in 10.0 mi NNW 9.2 mph - N/A Rain Rain
3:35 AM 42.8 °F 36.6 °F 41.0 °F 93% 29.98 in 10.0 mi NW 11.5 mph - N/A Rain Rain
3:55 AM 41.9 °F 35.0 °F 41.5 °F 99% 29.97 in 4.0 mi NNW 12.7 mph - 0.04 in Rain Rain
4:15 AM 41.5 °F 34.2 °F 41.0 °F 98% 29.99 in 4.0 mi NNW 13.8 mph - 0.03 in Rain Heavy Rain
4:35 AM 41.4 °F 34.3 °F 41.0 °F 99% 29.98 in 2.5 mi NNW 12.7 mph - 0.07 in Rain Light Rain
4:55 AM 41.2 °F 36.6 °F 40.8 °F 99% 30.00 in 4.0 mi NNW 6.9 mph - 0.11 in Rain Heavy Rain
5:15 AM 41.2 °F 33.0 °F 40.8 °F 99% 29.97 in 4.0 mi North 16.1 mph - 0.03 in Rain Rain
5:35 AM 41.2 °F 35.5 °F 40.8 °F 99% 30.00 in 7.0 mi NNW 9.2 mph - 0.04 in Rain Light Rain
5:55 AM 41.5 °F 36.4 °F 40.6 °F 97% 30.00 in 5.0 mi North 8.1 mph - 0.04 in   Drizzle
6:15 AM 41.7 °F 36.1 °F 40.8 °F 97% 29.99 in 7.0 mi NNW 9.2 mph - N/A   Overcast
6:35 AM 41.9 °F 35.4 °F 40.5 °F 95% 29.97 in 10.0 mi NNW 11.5 mph 19.6 mph N/A   Overcast
6:55 AM 41.9 °F 35.4 °F 40.3 °F 94% 29.99 in 10.0 mi NNW 11.5 mph - N/A   Overcast
7:15 AM 41.9 °F 36.3 °F 40.1 °F 93% 29.98 in 10.0 mi North 9.2 mph - N/A   Overcast
7:35 AM 41.9 °F 34.6 °F 40.1 °F 93% 30.03 in 7.0 mi NW 13.8 mph - N/A   Overcast
7:55 AM 42.1 °F 36.6 °F 39.4 °F 90% 30.05 in 10.0 mi NW 9.2 mph - N/A   Overcast
8:15 AM 42.1 °F 35.7 °F 39.2 °F 90% 30.08 in 10.0 mi WNW 11.5 mph 17.3 mph N/A   Overcast
8:35 AM 41.5 °F 35.0 °F 39.0 °F 91% 30.09 in 7.0 mi NW 11.5 mph 23.0 mph N/A Rain Rain
8:55 AM 41.0 °F 32.5 °F 39.2 °F 93% 30.11 in 5.0 mi NW 17.3 mph 24.2 mph N/A Rain Light Rain
9:15 AM 41.0 °F 33.9 °F 39.2 °F 93% 30.10 in 7.0 mi NW 12.7 mph 23.0 mph N/A Rain Light Rain
9:35 AM 41.4 °F 34.0 °F 39.7 °F 94% 30.09 in 7.0 mi NW 13.8 mph - N/A   Overcast
9:55 AM 41.4 °F 34.3 °F 39.2 °F 92% 30.10 in 10.0 mi NW 12.7 mph 20.7 mph N/A   Overcast
10:15 AM 41.2 °F 33.4 °F 38.5 °F 90% 30.12 in 10.0 mi NW 15.0 mph 20.7 mph N/A   Overcast
10:35 AM 41.5 °F 33.5 °F 38.3 °F 88% 30.13 in 10.0 mi NW 16.1 mph 20.7 mph N/A   Overcast
10:55 AM 41.7 °F 34.8 °F 38.3 °F 88% 30.14 in 10.0 mi NW 12.7 mph 24.2 mph N/A   Overcast
11:15 AM 41.0 °F 33.5 °F 37.4 °F 87% 30.15 in 7.0 mi NW 13.8 mph - N/A   Drizzle
11:35 AM 41.5 °F 34.6 °F 38.1 °F 88% 30.16 in 10.0 mi NW 12.7 mph 17.3 mph N/A   Overcast
11:55 AM 43.7 °F 36.3 °F 38.1 °F 81% 30.16 in 10.0 mi NW 16.1 mph 21.9 mph N/A   Overcast
12:15 PM 44.6 °F 38.1 °F 38.1 °F 78% 30.16 in 10.0 mi West 13.8 mph 19.6 mph N/A   Overcast
12:35 PM 45.0 °F 39.3 °F 37.8 °F 76% 30.17 in 10.0 mi NNW 11.5 mph 17.3 mph N/A   Overcast
12:55 PM 45.1 °F 40.3 °F 37.0 °F 73% 30.17 in 10.0 mi NW 9.2 mph - N/A   Mostly Cloudy
1:15 PM 46.4 °F 41.9 °F 37.2 °F 70% 30.18 in 10.0 mi NW 9.2 mph 17.3 mph N/A   Mostly Cloudy
1:35 PM 46.8 °F - 36.9 °F 68% 30.18 in 10.0 mi NW 11.5 mph - N/A   Overcast
1:55 PM 48.0 °F - 38.1 °F 69% 30.19 in 10.0 mi NW 11.5 mph - N/A   Mostly Cloudy
2:15 PM 47.1 °F - 35.6 °F 64% 30.19 in 10.0 mi NNW 9.2 mph - N/A   Mostly Cloudy
2:35 PM 48.2 °F - 36.0 °F 63% 30.19 in 10.0 mi NW 8.1 mph 17.3 mph N/A   Mostly Cloudy
2:55 PM 49.3 °F - 37.2 °F 63% 30.20 in 10.0 mi WNW 12.7 mph - N/A   Mostly Cloudy
3:15 PM 48.0 °F - 36.1 °F 63% 30.20 in 10.0 mi WSW 9.2 mph 17.3 mph N/A   Overcast
3:35 PM 48.9 °F - 35.8 °F 61% 30.20 in 10.0 mi West 9.2 mph - N/A   Overcast
3:55 PM 49.3 °F - 36.1 °F 61% 30.20 in 10.0 mi WSW 12.7 mph 16.1 mph N/A   Overcast
4:15 PM 49.1 °F - 35.1 °F 58% 30.20 in 10.0 mi West 5.8 mph 9.2 mph N/A   Scattered Clouds
4:35 PM 50.5 °F - 35.6 °F 57% 30.20 in 10.0 mi West 6.9 mph - N/A   Scattered Clouds
4:55 PM 49.6 °F - 35.2 °F 58% 30.21 in 10.0 mi West 8.1 mph - N/A   Mostly Cloudy
5:15 PM 50.2 °F - 35.2 °F 57% 30.21 in 10.0 mi West 11.5 mph - N/A   Scattered Clouds
5:35 PM 49.8 °F - 34.7 °F 56% 30.21 in 10.0 mi WNW 8.1 mph - N/A   Scattered Clouds
5:55 PM 49.8 °F - 36.0 °F 59% 30.21 in 10.0 mi West 8.1 mph - N/A   Clear
6:15 PM 50.0 °F - 34.7 °F 56% 30.22 in 10.0 mi West 5.8 mph - N/A   Scattered Clouds
6:35 PM 49.8 °F - 34.7 °F 56% 30.21 in 10.0 mi WSW 9.2 mph - N/A   Clear
6:55 PM 49.5 °F - 35.4 °F 58% 30.21 in 10.0 mi WSW 3.5 mph - N/A   Clear
7:15 PM 49.1 °F - 34.2 °F 56% 30.21 in 10.0 mi West 5.8 mph - N/A   Clear
7:35 PM 48.0 °F - 36.9 °F 65% 30.21 in 10.0 mi SW 4.6 mph - N/A   Clear
7:55 PM 46.6 °F - 39.2 °F 75% 30.22 in 10.0 mi Calm Calm - N/A   Clear
8:15 PM 45.7 °F - 38.1 °F 75% 30.23 in 10.0 mi Calm Calm - N/A   Clear
8:35 PM 45.5 °F - 37.4 °F 73% 30.23 in 10.0 mi Calm Calm - N/A   Clear
8:55 PM 45.3 °F - 36.0 °F 70% 30.24 in 10.0 mi Calm Calm - N/A   Clear
10:15 PM 42.8 °F - 37.9 °F 83% 30.26 in 10.0 mi Calm Calm - N/A   Clear
10:35 PM 43.0 °F - 37.0 °F 80% 30.26 in 10.0 mi Calm Calm - N/A   Clear
10:55 PM 42.3 °F - 37.9 °F 85% 30.26 in 10.0 mi Calm Calm - N/A   Clear
11:15 PM 43.2 °F - 36.1 °F 76% 30.26 in 10.0 mi Calm Calm - N/A   Clear
11:35 PM 41.5 °F - 37.2 °F 85% 30.26 in 10.0 mi Calm Calm - N/A   Clear
11:55 PM 41.2 °F - 36.0 °F 82% 30.26 in 10.0 mi Calm Calm - N/A   Clear